GFSFLT1_250_rhum_105.txt.gz
RH
58 90 100 76 74 53 45 76 100 71 50 67 60 41 38 40 34 35 32 35 33 30 35 34 38 35 21 35 63 65 79 95
59 74 94 100 86 60 42 47 76 65 35 52 54 41 40 37 39 39 36 36 33 31 32 33 39 36 23 22 61 66 64 76
59 61 98 100 92 62 48 47 69 74 55 55 53 48 45 41 37 43 44 41 42 34 34 35 42 38 24 38 88 84 86 87
59 63 80 100 98 81 73 74 85 96 100 76 64 55 62 49 42 43 50 47 44 36 42 47 46 40 24 83 98 72 81 100
55 61 55 57 99 99 94 83 72 100 100 100 97 66 70 54 46 50 60 50 49 37 40 46 43 38 50 100 100 77 64 96
58 60 65 61 100 100 100 100 100 100 100 100 100 69 74 63 55 69 69 64 53 38 40 48 42 36 100 100 92 100 100 100
75 94 93 93 99 100 100 100 100 100 99 100 95 63 97 90 70 73 74 74 56 38 36 49 42 47 100 100 100 100 100 100
80 94 100 100 100 100 100 100 100 100 100 100 100 94 100 97 83 92 82 73 56 42 35 48 42 72 100 100 98 100 100 100
88 95 100 100 100 100 97 100 100 100 100 100 100 100 100 97 97 98 82 66 54 46 36 47 42 100 100 100 100 100 100 100
77 87 84 100 100 100 100 95 100 100 100 100 100 100 99 100 100 98 91 73 56 56 38 45 42 100 100 100 100 100 100 100
72 80 91 100 100 100 100 100 93 98 100 100 100 93 76 93 100 100 99 72 62 63 42 43 40 80 100 100 100 98 100 100
91 96 79 88 88 89 100 100 100 100 100 81 69 82 73 72 100 100 97 74 74 71 48 41 42 61 100 100 100 100 97 100
70 91 88 77 86 100 100 100 100 100 99 84 83 100 90 87 100 100 87 82 82 76 74 50 47 51 82 100 100 100 100 95
53 58 67 93 100 100 100 100 100 100 93 100 99 100 98 95 97 100 90 86 84 78 71 66 50 48 56 100 100 100 99 100
86 94 94 99 98 85 94 100 100 100 98 92 98 92 73 88 93 88 94 98 92 83 69 70 62 51 50 76 100 100 100 100
96 100 100 100 97 93 97 100 100 100 100 100 97 76 67 69 79 89 100 100 100 100 67 60 51 48 51 54 100 100 100 100
87 78 81 91 97 97 97 95 100 100 100 84 73 68 71 96 96 99 100 100 100 99 77 66 56 48 49 53 64 100 100 100
100 100 100 100 100 100 100 100 100 100 100 100 100 98 99 100 100 100 100 100 100 99 83 72 58 50 51 54 52 61 79 99
100 100 100 100 99 100 92 94 100 100 100 96 94 97 99 96 88 95 100 100 100 98 81 79 82 63 54 54 55 48 48 53

GFSFLT1_250_rhum_108.txt.gz
RH
43 70 60 88 65 53 88 71 54 39 42 82 95 63 59 51 50 40 37 34 38 41 44 41 34 29 27 37 39 36 24 52
59 92 87 100 85 47 87 86 70 60 56 58 73 62 54 48 48 43 36 34 38 40 46 52 43 32 28 34 38 34 26 25
43 90 74 90 80 58 52 96 78 74 64 48 46 51 61 66 64 56 41 42 43 46 57 56 52 36 36 43 37 32 20 40
46 38 70 92 81 72 56 94 97 95 100 75 42 54 84 100 100 79 57 48 47 52 65 68 61 37 37 48 36 32 25 82
29 32 67 100 92 79 64 70 100 100 100 76 49 68 100 100 100 100 84 57 54 61 68 76 66 40 37 50 39 30 74 100
18 34 42 96 97 80 70 85 100 100 100 100 97 73 99 100 100 100 83 65 74 80 74 73 64 43 40 49 38 88 99 84
19 36 39 97 100 93 79 90 100 100 100 98 100 90 95 96 100 100 74 96 98 94 80 78 66 44 40 50 40 98 100 100
29 34 49 100 100 91 89 82 83 100 100 100 100 100 100 100 100 100 83 89 100 99 87 84 67 46 41 53 52 100 100 100
36 35 56 100 100 100 100 90 79 100 100 100 100 100 85 91 68 100 100 100 100 99 97 83 60 48 42 52 61 100 100 100
48 48 83 100 100 100 79 86 100 96 100 100 100 100 97 67 62 99 100 100 100 100 100 83 67 52 45 51 56 100 100 99
55 61 100 100 100 80 85 81 86 100 80 80 100 100 85 63 88 100 100 100 100 100 100 76 54 56 50 52 58 100 100 100
53 55 88 100 100 100 99 88 100 100 100 100 100 99 65 64 86 100 100 100 100 100 100 87 55 62 56 48 59 100 100 100
80 59 56 90 100 98 86 93 93 95 100 100 100 100 83 82 100 100 100 100 100 100 100 94 68 65 57 49 58 89 100 100
73 66 60 56 66 73 75 77 83 100 94 93 80 84 80 81 93 99 100 95 100 100 100 99 62 80 67 52 57 66 100 100
100 83 65 61 57 64 76 71 80 98 96 99 90 66 85 83 63 74 74 71 97 100 99 88 89 81 65 52 74 60 79 100
84 100 100 87 77 73 79 87 87 72 94 89 88 100 100 100 94 85 78 91 89 86 93 100 96 75 65 56 55 76 67 89
69 74 88 100 93 84 88 86 93 89 84 94 100 90 100 100 100 100 83 81 93 77 100 100 89 74 80 79 56 54 57 68
92 80 83 88 88 94 93 100 98 95 90 84 88 91 87 92 98 100 92 100 100 79 97 100 100 100 92 88 60 50 51 54
100 100 98 84 90 96 86 91 94 100 97 92 85 82 83 82 84 78 71 72 82 88 98 100 100 100 96 98 100 88 57 55

GFSFLT1_250_rhum_111.txt.gz
RH
30 31 37 38 66 100 99 73 45 45 45 53 45 48 58 58 57 67 62 44 38 42 44 43 46 53 65 64 40 30 31 36
33 32 36 36 52 66 97 72 72 50 50 61 56 62 61 68 71 64 60 42 41 48 46 50 47 56 68 75 46 34 40 42
30 28 28 33 32 38 86 66 61 70 52 71 64 68 82 65 63 66 49 44 52 62 58 70 56 60 68 68 52 35 41 43
26 24 24 20 24 32 57 88 64 83 72 81 79 70 81 76 68 56 49 67 76 68 57 74 56 64 70 75 59 38 45 41
25 23 17 17 25 41 50 87 100 96 85 97 88 84 63 61 81 71 79 88 89 82 54 63 58 75 76 87 65 42 46 42
20 20 16 18 22 35 71 93 100 100 89 84 100 86 60 70 74 74 89 82 98 88 58 61 69 100 89 73 69 44 43 43
14 16 16 19 21 31 62 100 100 100 89 88 94 83 88 100 100 100 100 100 100 96 72 67 94 100 95 72 70 47 42 43
17 18 18 18 21 28 42 100 100 100 100 100 87 100 91 100 97 82 100 100 100 100 82 61 81 100 100 80 71 44 41 47
20 20 18 18 24 35 45 97 100 100 100 98 93 100 100 100 100 90 100 100 100 100 67 53 79 100 100 89 61 48 48 44
24 22 21 20 24 33 50 68 100 100 100 100 98 100 100 100 100 100 100 100 100 96 70 64 95 100 100 92 70 53 56 47
29 30 24 24 27 34 55 54 100 100 100 100 100 100 100 100 94 100 100 95 86 97 96 75 100 100 100 100 88 67 55 49
37 41 41 37 37 38 50 56 100 100 100 100 100 100 100 100 64 55 49 58 92 100 100 100 100 100 100 100 100 80 64 56
69 94 52 44 42 45 53 61 96 100 100 100 100 100 100 100 92 72 71 75 76 93 89 100 100 99 100 100 100 85 76 58
81 61 48 42 44 50 58 64 96 100 100 83 88 85 100 100 100 94 84 82 79 93 83 100 100 100 100 100 100 100 78 54
88 89 82 53 53 45 47 57 90 100 100 100 100 100 97 99 100 100 100 100 100 100 86 99 100 100 100 100 100 100 76 58
100 100 100 100 100 79 59 66 91 100 100 95 91 98 97 99 100 100 99 96 86 92 93 83 100 100 100 100 68 78 73 62
100 100 100 100 100 89 70 61 64 83 98 100 100 100 89 77 94 100 100 100 77 65 65 66 81 91 96 93 73 80 73 68
100 100 100 100 100 100 100 99 72 64 63 67 72 71 74 76 68 69 88 99 76 100 100 51 66 72 86 90 70 92 62 70
77 76 82 85 86 92 94 92 89 75 62 52 54 60 60 69 70 69 80 75 94 100 96 100 87 99 100 97 81 72 71 61

GFSFLT1_250_rhum_114.txt.gz
RH
39 55 66 74 64 55 49 42 50 58 88 78 60 42 37 58 55 50 52 84 96 78 45 41 44 49 49 49 55 52 43 37
34 37 51 50 51 48 44 42 35 47 88 100 63 61 47 50 45 47 48 66 83 76 38 45 46 52 55 50 55 58 51 46
28 28 34 47 46 43 49 52 36 39 71 100 92 59 64 59 48 53 74 73 83 57 48 48 47 63 67 59 57 60 62 51
31 25 27 34 43 44 48 40 43 40 64 86 100 71 75 84 72 63 81 65 68 51 42 44 60 67 77 67 72 87 77 57
30 20 22 27 35 39 45 38 38 34 46 61 100 88 71 100 88 75 67 77 60 53 49 67 92 97 88 80 91 100 90 64
17 17 18 25 33 32 35 43 57 61 60 56 100 100 64 93 100 72 63 84 70 58 72 61 75 93 100 93 98 100 98 70
13 14 15 18 26 28 32 45 44 65 60 82 100 100 70 72 90 93 65 84 88 98 96 99 89 100 88 78 86 100 95 78
11 14 14 15 19 25 31 47 40 47 65 85 100 100 89 79 67 91 100 100 100 100 70 64 63 67 72 68 74 100 90 97
12 12 14 16 22 26 31 47 35 38 52 67 100 100 100 97 64 95 100 91 100 100 100 88 86 86 70 70 67 100 100 87
15 14 14 18 21 23 30 36 31 40 55 63 93 100 100 100 79 74 94 79 83 99 99 100 100 100 82 73 84 94 100 80
19 19 20 21 22 26 32 33 28 34 60 77 92 100 100 100 82 82 85 91 97 100 100 100 100 100 91 85 93 100 100 84
24 26 33 32 30 28 32 34 31 34 37 50 78 100 100 100 99 83 70 76 96 100 100 100 100 100 96 100 100 100 100 92
30 29 30 38 37 33 30 32 31 31 32 43 58 100 100 100 100 100 100 86 89 83 80 91 91 89 100 98 97 100 100 94
39 48 54 60 100 60 38 31 34 34 36 44 58 85 100 100 100 100 100 74 74 66 70 70 95 100 100 100 100 99 90 89
89 100 100 80 90 70 48 42 42 45 45 46 54 62 100 100 100 100 100 100 90 92 69 69 88 96 100 99 100 90 89 92
98 100 100 88 100 80 53 50 47 49 51 54 62 72 91 100 100 100 100 100 100 100 84 86 97 96 83 97 90 95 97 94
100 98 98 100 100 91 71 58 48 52 55 55 61 59 98 100 100 100 100 100 100 100 100 100 100 100 98 82 100 100 100 100
98 100 100 100 100 100 100 100 100 77 58 51 56 61 97 100 100 100 100 100 100 100 100 84 100 100 100 97 100 91 77 90
100 100 100 100 100 98 100 100 93 72 57 52 51 56 70 95 100 100 100 100 100 100 93 90 92 95 100 88 100 100 100 100